GORIZONT 32

Satellite information

Favourite Embed

Satellite Type and Status

PAYLOADIN ORBIT

Key statistics

Satellite GORIZONT 32 at a glance.

Uptime

10748

Days in orbit

Revolutions

≈ 1.0

Per day

Orbit

OTHER

Other

Inclination

14.4

Latest

Satellite identification and parameters

Extended collection of information and parameters for GORIZONT 32.

Object identification

Identified? True

Debris? False

Object name: GORIZONT 32

International designator: 1996-034A

Object number (NORAD): 23880

Object ID (CCSDS): 23880

Country: COMMONWEALTH OF INDEPENDENT STATES (CIS)

Current information (Y/N): Y

RCS size: LARGE

Orbital parameters

Period: 1437.32 minutes

Inclination: 14.4019 deg

SMA: 42188.664 km

Apoapsis: 35841.207 km

Periapsis: 35779.851 km

RAAN: 356.7438 deg

Eccentricy: 0.00072716

Argument of periapsis: 347.8246 deg

Mean anomaly: 62.3327 deg

Mean motion: 1.00186477 rev/day

Mean motion (dot): 0.00000102 rev/day2

B* drag term: 0.0 1/REarth

Two-line elements (TLE)

Creation date: Oct. 28, 2025, 2:18 a.m.

Reference frame: TEME

Reference center: EARTH

Epoch: Oct. 27, 2025, 11:33 a.m. UTC

TLE line 0: 0 GORIZONT 32

TLE line 1: 1 23880U 96034A 25300.48183747 .00000102 00000-0 00000-0 0 9998

TLE line 2: 2 23880 14.4019 356.7438 0007272 347.8246 62.3327 1.00186477107702

Live tracking on map

Real-time ground track for satellite GORIZONT 32.

In-orbit conjunctions

A list of the most updated potential collisions computed for object GORIZONT 32.

Target Orbit TCA Probability of collision Miss distance Type
GOES 1 (SMS-C) OTHER 2025-04-14 17:13:39 TBA 1385.0 (m) PAYLOAD
GORIZONT 30 OTHER 2024-08-03 09:02:14 TBA 4208.0 (m) PAYLOAD

Associated space launch

Geostationary communications satellite

GORIZONT 32 was lifted into orbit during the mission ‘Proton | Gorizont 32’, on board a Proton space rocket.

The launch took place on May 25, 1996, 2:05 a.m. from 200/39 (200L).

For more information about the launch, click the button.

Launch to space Proton | Gorizont 32
Proton | Gorizont 32

Agency: N/A

Status: Launch Successful

Launch date: May 25, 1996, 2:05 a.m. UTC

Rocket: Proton

Launch pad: 200/39 (200L)

Location: Baikonur Cosmodrome, Republic of Kazakhstan

...

Latest news about this satellite

There are no fresh news available about this satellite. Check back as we update our databases every day.


Newsletter sign-up

Weekly statistics, charts and insights to help you stay on top of the space industry.